Location: Baturyn
(53.6332°N, 113.5041°W)
Time: 05:06:38
(UTC+00:00)

N. Korean satellite - Pass Details

Date: 09 December 2021
Orbit: 446 x 492 km, 97.3° (Epoch: 16 January)

Event Time Altitude Azimuth Distance (km) Brightness Sun altitude
Rises 00:25:36 0° 188° (S) 2,511 10.7 -9.7°
Reaches altitude 10° 00:27:48 10° 199° (SSW) 1,629 9.9 -10.0°
Maximum altitude 00:30:58 31° 264° (W) 839 8.6 -10.5°
Drops below altitude 10° 00:34:06 10° 328° (NNW) 1,618 9.3 -10.9°
Sets 00:36:18 0° 339° (NNW) 2,490 10.1 -11.2°
